Hourly Data Report for October 01, 2017

All times are specified in Local Standard Time (LST). Add 1 hour to adjust for Daylight Saving Time where and when it is observed.

QUALICUM BEACH AIRPORT
BRITISH COLUMBIA

49°20'14.000" N
124°23'38.000" W
58.20 m
1026562
71766
VOQ

Download Data

Hourly Data (October 2017)
Hourly Data Report for October 1, 2017
Temp Definition
°C
Dew Point Temp Definition
°C
Rel Hum Definition
%
Wind Dir Definition
10's deg

Wind Spd Definition
km/h
Visibility Definition
km
Stn Press Definition
kPa
Hmdx Definition


Wind Chill Definition


Weather Definition


TIME
00:00 9.2 7.5 90 28 7   101.23     LegendNANA
01:00 9.1 7.3 89 28 9   101.24     LegendNANA
02:00 9.6 7.0 84 27 9   101.23     LegendNANA
03:00 10.3 7.3 82 29 9   101.26     LegendNANA
04:00 10.7 7.3 79 29 11   101.28     LegendNANA
05:00 10.8 7.2 78 29 9   101.30     LegendNANA
06:00 10.8 6.9 77 30 10   101.32     LegendNANA
07:00 11.0 6.6 75 30 10   101.37     LegendNANA
08:00 11.2 6.2 71 30 13   101.41     LegendNANA
09:00 11.5 6.4 71 29 13   101.41     LegendNANA
10:00 12.0 6.6 69 30 10   101.44     LegendNANA
11:00 12.8 6.5 65 31 14   101.43     LegendNANA
12:00 13.5 7.4 66 32 15   101.44     LegendNANA
13:00 14.3 7.7 64 33 18   101.42     LegendNANA
14:00 15.1 7.0 58 32 16   101.38     LegendNANA
15:00 15.3 7.0 57 33 12   101.38     LegendNANA
16:00 15.1 6.9 58 32 11   101.37     LegendNANA
17:00 15.3 7.1 58 31 7   101.36     LegendNANA
18:00 12.3 7.7 74 27 5   101.37     LegendNANA
19:00 12.8 7.8 72 28 8   101.40     LegendNANA
20:00 12.0 7.5 74 30 6   101.41     LegendNANA
21:00 11.4 6.3 71 28 8   101.40     LegendNANA
22:00 11.5 4.6 63 29 13   101.39     LegendNANA
23:00 11.3 4.2 62 29 7   101.41     LegendNANA

Notes on Data Quality.

Legend

  • E = Estimated
  • M = Missing
  • NA = Not Available
  • ‡ = Partner data that is not subject to review by the National Climate Archives
Date modified: